GFSCGP_sfc_rhum_261.txt.gz
RH
56 51 54 45 53 46 50 54 56 46 45 50 48 50 40 37 40 41 40 36 35 38 36 36 35 61 86 85 82 84 84 86 86 90 90 86 83 87 87 87 81 80 80 79
54 55 49 48 43 42 44 49 48 47 47 51 52 45 37 39 44 44 41 39 37 41 40 38 39 78 84 81 80 84 82 85 84 85 86 81 87 92 91 90 86 84 82 82
58 51 44 41 46 45 56 51 57 51 51 56 51 43 35 35 36 36 43 37 39 40 43 42 41 44 82 82 81 80 82 82 82 82 88 91 92 93 93 92 92 88 85 85
58 50 42 48 45 48 58 50 50 57 63 66 57 56 42 36 40 34 38 38 40 42 44 44 47 50 48 80 81 78 80 83 82 84 86 84 87 89 92 93 93 92 87 86
56 50 49 51 46 45 54 52 57 63 79 75 68 76 42 44 34 36 36 38 39 44 47 49 54 51 48 69 83 81 82 83 82 86 83 85 88 89 91 94 92 92 90 88
60 53 48 46 53 50 53 58 72 85 85 89 63 62 52 40 32 32 37 36 37 46 50 53 59 57 66 86 85 84 81 82 82 87 85 84 86 89 94 94 96 96 95 94
70 63 56 48 54 50 57 63 84 82 93 76 70 74 52 39 34 33 31 36 38 48 53 63 65 73 87 90 86 80 80 83 85 88 87 87 87 90 90 91 95 96 96 96
76 66 60 51 52 58 64 62 81 74 81 72 71 79 54 40 38 38 33 36 41 51 58 66 68 72 87 89 89 83 83 82 86 89 89 90 89 93 92 91 95 95 96 94
82 75 62 54 54 51 62 75 62 63 78 91 68 57 42 42 40 40 38 44 43 51 58 63 68 70 84 90 90 88 86 84 85 87 89 90 91 92 93 92 93 95 94 89
59 69 67 60 53 57 58 52 67 76 73 77 75 70 58 45 39 41 42 52 49 54 59 63 68 73 80 88 90 90 90 89 87 88 90 88 90 91 92 92 93 93 94 90
59 65 76 64 64 65 61 62 61 66 80 82 64 62 53 41 39 40 40 50 52 56 60 63 70 76 79 83 89 90 90 89 90 90 89 91 91 91 92 94 93 93 92 90
58 67 83 70 65 59 57 53 49 60 70 87 89 59 43 40 43 41 39 42 52 56 59 66 69 74 79 81 84 88 89 90 90 89 89 91 91 91 93 93 91 84 83 86
58 72 91 86 76 66 65 59 50 52 62 59 77 62 40 42 43 41 41 46 45 48 60 66 70 72 73 78 79 80 83 84 86 87 89 90 90 92 92 88 81 79 79 80
73 73 78 78 70 69 77 66 52 48 60 56 62 56 44 39 39 38 43 45 46 46 49 60 67 70 76 78 79 80 80 86 87 88 89 90 91 91 89 86 83 81 82 82
92 96 79 73 71 70 65 63 60 61 54 68 65 60 47 44 38 37 40 44 42 41 44 49 56 64 68 66 74 80 85 89 90 90 91 90 89 87 86 88 90 89 85 86
98 99 100 98 92 98 98 89 79 69 57 56 56 59 47 48 46 43 47 48 50 50 48 45 49 57 68 75 85 90 90 90 91 90 90 90 88 89 91 93 90 90 92 93
100 99 99 96 98 98 88 77 85 82 72 75 97 83 69 73 75 69 55 56 62 74 68 59 62 63 83 90 89 93 90 90 92 91 89 87 90 91 91 93 92 93 95 96
99 99 99 98 98 95 73 66 59 72 73 71 74 74 70 64 61 63 55 62 63 51 57 60 70 81 87 90 89 88 86 91 92 92 92 93 92 92 92 92 93 95 96 97
96 98 98 98 97 79 72 67 60 84 70 72 62 57 56 74 77 77 62 65 58 59 64 73 86 92 94 92 92 90 88 89 95 94 94 95 95 94 95 96 96 95 97 96
92 97 99 99 96 96 83 86 79 53 82 85 80 73 55 55 80 74 53 58 61 71 85 89 92 94 93 93 90 90 94 92 97 98 96 95 96 96 96 94 96 96 94 95
97 98 97 97 97 96 95 89 76 96 90 91 80 82 74 82 63 48 59 68 77 86 90 88 89 90 91 95 94 96 96 93 89 89 97 97 97 97 95 95 95 96 94 94
89 88 91 96 98 95 97 70 82 76 87 77 73 72 90 86 80 60 71 87 90 91 90 88 91 92 94 91 90 93 94 91 89 94 96 97 97 95 95 97 97 96 96 98
89 79 88 78 69 70 93 76 65 81 77 74 74 65 81 86 85 75 74 92 92 95 95 89 89 93 96 92 91 94 98 94 95 97 98 99 98 96 95 97 98 98 96 97
67 91 94 86 71 68 47 54 51 55 71 70 69 68 75 84 80 86 70 94 96 96 96 90 92 95 97 87 87 96 97 97 98 98 98 96 98 98 96 96 97 97 98 99
75 81 86 78 55 52 55 61 58 65 62 60 55 58 62 64 68 75 76 83 93 94 93 87 88 92 97 85 87 91 95 96 97 96 95 95 92 90 95 98 98 98 98 97
65 66 74 53 37 51 64 81 77 74 75 66 74 78 68 62 59 58 59 65 87 90 88 85 84 93 98 91 90 95 87 79 79 90 92 96 95 92 97 90 98 94 89 87

GFSCGP_sfc_rhum_264.txt.gz
RH
58 50 54 44 58 60 60 57 48 45 47 51 50 50 40 38 44 42 42 38 38 38 36 37 39 50 88 94 90 90 88 89 89 93 91 90 87 90 90 89 82 82 83 81
57 58 46 48 49 45 47 54 50 50 50 57 56 47 39 39 44 45 41 44 40 39 38 39 40 76 88 91 91 92 87 89 87 89 90 86 89 92 90 90 87 85 84 84
60 51 49 43 49 46 55 52 56 51 54 59 56 44 38 35 40 38 42 48 45 37 39 43 42 51 86 91 92 86 86 85 86 86 91 94 93 94 93 93 92 89 86 86
59 54 45 50 48 47 56 51 52 56 66 65 60 61 44 35 36 37 35 41 46 44 43 45 46 47 68 88 91 87 86 86 86 88 89 87 88 88 90 91 92 91 88 87
56 56 54 55 50 44 54 54 59 65 78 73 74 78 48 47 36 29 31 37 42 43 44 45 47 49 50 64 90 87 88 89 88 90 88 89 88 88 90 93 90 91 91 89
66 56 53 52 56 55 59 61 73 85 84 89 68 60 60 40 34 30 32 37 40 42 47 48 52 57 59 59 89 91 89 89 89 91 89 88 88 88 92 92 94 95 94 94
70 64 55 48 56 53 59 65 82 82 89 76 76 71 53 42 36 30 28 34 39 41 47 53 60 68 69 81 90 90 89 89 88 90 90 89 88 88 89 90 93 93 95 95
77 66 62 54 51 59 64 62 81 72 83 75 74 81 53 44 39 38 37 36 36 41 48 56 64 69 74 86 90 88 88 86 88 90 90 90 88 91 92 91 94 95 95 94
79 70 68 60 60 55 64 76 68 67 80 93 69 60 46 44 42 42 39 37 37 41 50 55 64 68 76 90 90 86 85 84 86 88 90 91 91 92 92 91 93 95 94 89
60 66 73 64 56 59 60 55 71 80 76 79 74 71 60 46 38 38 38 40 43 46 53 59 64 68 74 86 88 88 85 84 84 87 90 88 91 92 92 92 92 94 93 93
60 64 78 68 66 68 64 66 64 68 81 86 64 56 54 44 38 38 37 38 44 50 56 59 62 70 72 85 92 92 92 91 91 91 90 91 91 91 92 94 93 93 92 94
60 69 84 70 68 64 62 57 51 72 71 86 91 56 45 41 41 43 38 37 46 52 57 60 64 69 78 83 89 92 92 92 91 90 91 90 90 91 92 93 92 89 87 86
65 74 91 83 79 72 70 64 54 55 64 63 83 56 43 42 39 40 40 40 42 49 57 62 66 70 74 78 80 85 88 88 89 88 89 89 90 91 92 93 90 82 82 85
84 85 82 63 69 74 77 72 61 52 66 62 58 51 41 44 45 42 40 42 43 47 50 60 64 67 71 74 78 81 82 80 83 87 90 89 89 90 92 92 91 83 84 90
94 93 81 74 72 84 91 86 73 65 61 68 56 57 48 54 54 48 43 43 44 46 45 47 56 66 72 78 78 77 75 78 87 90 91 90 89 90 91 92 92 91 91 88
99 98 98 90 78 88 95 84 88 84 85 82 81 87 57 57 65 73 72 63 49 49 46 43 48 57 61 66 72 77 81 88 90 92 91 90 91 92 92 90 94 94 94 91
100 99 99 97 99 98 90 70 64 62 70 86 98 96 66 69 66 75 74 74 59 56 50 63 58 57 62 70 76 87 90 91 91 91 89 90 91 92 91 90 94 95 94 94
99 99 99 98 96 96 72 69 64 78 88 85 82 82 74 72 66 55 70 69 66 54 51 58 69 72 80 88 90 89 86 92 94 92 91 91 93 93 93 92 93 94 94 96
93 98 98 98 96 84 69 88 95 92 96 81 77 79 82 85 68 78 54 65 58 55 66 69 72 82 91 90 90 87 87 89 95 94 93 94 94 95 96 96 96 95 96 97
98 98 99 98 97 96 96 94 64 91 95 66 74 76 88 87 93 73 72 70 65 66 76 84 92 93 92 93 89 88 92 93 98 98 98 95 95 96 97 96 96 95 95 95
98 98 98 96 96 97 97 83 55 82 87 62 79 75 79 81 74 73 82 74 69 85 90 93 91 90 90 92 92 95 97 96 93 90 94 97 97 97 96 95 96 97 97 96
80 82 85 87 97 94 97 78 80 72 68 71 81 76 77 71 70 72 78 82 77 90 94 91 92 91 93 92 88 93 94 91 89 92 93 92 94 95 95 97 98 97 96 97
88 73 85 82 72 72 92 72 63 70 76 75 77 75 77 76 72 77 80 80 79 94 96 92 92 95 95 93 88 94 98 96 93 96 98 99 98 96 96 98 99 99 97 98
72 82 93 76 61 66 47 40 52 56 68 70 68 67 63 67 65 64 65 80 87 93 96 91 92 97 97 95 92 91 94 92 95 96 97 98 98 98 97 96 95 97 98 98
72 81 86 88 62 48 42 51 64 76 74 75 68 68 76 74 79 76 68 61 65 90 95 92 92 96 92 86 95 97 92 95 97 95 94 95 93 95 97 97 97 97 97 97
76 73 71 64 38 51 50 74 87 90 90 74 70 71 72 85 90 86 82 74 59 80 92 92 89 92 93 88 93 91 78 78 83 91 94 93 96 94 92 97 97 91 92 93

GFSCGP_sfc_rhum_267.txt.gz
RH
57 50 51 45 54 48 50 51 45 43 47 49 47 47 37 33 40 36 33 32 30 28 30 34 35 39 57 81 84 78 79 77 76 75 72 70 68 70 70 68 67 65 65 67
56 56 48 48 55 52 52 53 48 46 49 49 50 45 37 34 39 39 36 36 36 34 33 35 40 50 69 82 85 81 77 78 74 72 71 68 68 70 69 72 70 69 67 69
55 49 53 45 52 49 52 51 49 47 52 54 51 44 37 31 36 35 37 41 40 39 35 34 43 54 69 82 88 82 78 77 75 74 77 77 75 76 74 74 72 72 69 71
58 54 47 48 50 48 55 50 51 55 59 61 53 52 44 35 34 33 29 33 33 41 40 38 43 45 68 73 85 82 80 78 77 75 74 74 72 71 70 70 72 72 73 74
53 55 53 55 48 44 53 55 57 61 70 66 59 71 41 42 33 28 28 32 35 39 43 41 45 45 46 71 82 82 80 80 78 78 73 74 74 70 72 76 75 76 77 77
62 55 51 49 57 55 60 58 69 78 76 85 57 53 49 38 30 30 29 27 35 36 40 41 43 49 50 57 80 83 82 81 80 79 78 76 76 76 77 76 76 78 77 77
67 67 58 52 58 54 59 61 83 81 90 72 66 65 47 39 34 31 29 30 32 36 38 41 46 54 58 62 67 82 82 81 79 80 80 78 77 78 78 76 76 78 77 78
74 66 61 55 56 59 63 61 80 73 75 65 70 70 46 41 37 37 38 37 36 35 39 44 50 54 61 67 73 78 81 78 81 79 80 80 79 79 78 77 79 78 78 76
72 64 67 60 58 55 62 73 62 65 74 86 62 53 44 42 40 39 40 37 36 37 41 45 50 57 62 70 77 78 79 76 79 80 79 79 79 80 80 80 80 79 79 78
54 60 73 63 57 57 58 54 70 77 76 80 68 62 54 41 39 39 38 40 39 41 43 47 50 58 62 69 79 81 78 75 76 79 78 77 79 80 80 80 81 81 78 81
59 60 76 65 66 67 63 65 63 68 78 84 72 51 50 44 43 38 39 41 41 43 46 50 54 58 62 72 83 83 80 79 80 80 81 81 81 81 81 81 80 79 78 79
60 71 82 68 69 65 62 59 56 72 69 84 84 57 47 41 41 41 41 41 41 45 49 52 55 59 67 70 82 86 87 86 83 83 84 85 83 83 83 83 81 79 78 78
65 74 90 81 79 72 69 64 57 57 66 64 79 55 42 43 42 48 45 45 42 42 44 50 57 61 62 70 76 84 86 85 84 86 86 87 88 85 83 81 81 80 79 78
87 83 74 51 62 70 75 71 62 53 66 60 57 50 43 47 60 54 55 62 52 45 43 47 54 57 62 70 74 77 81 82 84 85 86 84 84 83 82 82 83 81 78 80
96 99 90 80 80 80 82 77 68 68 62 69 60 61 61 83 69 65 72 73 71 58 45 43 45 54 61 70 73 75 77 80 81 83 86 86 84 83 82 85 85 84 82 82
99 98 97 90 80 81 93 85 82 81 85 87 80 85 89 68 63 62 56 63 62 64 62 54 46 52 62 68 72 73 74 78 84 86 87 86 86 85 87 87 86 86 85 84
100 99 98 96 94 90 87 75 72 73 92 95 96 96 83 65 67 67 66 70 71 66 60 54 53 54 56 62 65 72 77 84 86 88 88 87 85 86 89 87 88 88 88 87
99 99 99 98 97 96 94 80 78 88 93 93 92 67 55 68 73 68 61 73 75 69 67 65 60 61 67 70 74 82 89 90 90 92 88 87 88 89 90 89 89 88 90 90
93 98 98 98 96 88 91 82 73 96 95 85 65 60 62 68 72 65 49 66 75 74 73 74 77 76 72 86 90 90 92 92 92 92 90 90 90 92 92 93 92 90 90 92
93 98 99 98 97 95 92 94 82 91 93 69 68 64 72 80 83 65 64 64 74 76 78 86 88 91 91 90 85 84 89 92 95 94 93 92 92 92 93 92 93 90 92 93
98 99 98 95 97 96 96 91 80 77 66 58 68 75 78 87 80 71 68 68 70 76 82 89 92 92 90 90 85 86 90 92 94 93 95 96 95 95 92 92 92 94 96 95
89 94 94 94 98 94 95 77 77 68 58 71 75 80 82 81 80 73 69 75 72 73 81 89 92 92 92 92 88 90 89 91 89 92 92 94 94 92 93 93 95 96 96 98
88 66 71 72 73 79 92 68 61 57 76 72 79 78 80 77 69 72 72 70 66 67 84 90 90 90 89 89 87 89 94 91 93 94 94 96 95 93 94 96 98 98 97 98
74 82 96 73 62 63 51 47 52 60 67 75 75 73 69 78 79 79 77 79 76 69 64 86 90 92 92 90 89 92 93 91 89 93 97 96 95 95 96 95 94 93 97 98
68 85 86 84 67 46 39 47 52 81 82 84 68 67 72 82 79 80 79 76 77 79 70 80 92 95 97 95 95 92 90 92 93 95 94 93 91 93 95 95 93 94 96 93
80 74 73 69 51 49 53 87 87 79 77 69 69 70 66 68 71 66 66 69 73 84 80 76 90 91 97 99 95 95 92 89 85 92 92 96 95 95 94 93 94 90 88 91

GFSCGP_sfc_rhum_270.txt.gz
RH
39 31 32 22 25 29 30 30 30 28 32 33 28 28 22 19 21 22 18 17 17 17 17 19 19 20 23 23 36 46 60 64 61 62 60 58 58 57 55 51 50 48 47 50
37 35 24 32 34 35 34 32 31 31 34 34 29 31 24 20 20 20 20 18 18 19 19 20 23 24 26 29 44 51 60 63 60 57 54 51 52 51 49 54 53 50 50 52
29 30 38 35 38 35 33 31 32 32 34 36 35 25 24 20 22 21 21 20 19 21 22 23 25 26 32 38 49 52 60 63 60 57 58 57 58 56 57 57 55 55 51 54
34 35 37 37 36 32 37 31 33 38 38 44 33 37 21 19 20 20 18 18 19 20 24 25 26 28 37 41 50 56 62 65 61 59 59 58 53 52 50 51 52 54 54 55
38 45 42 41 36 33 40 38 39 43 45 47 38 51 20 24 20 17 14 19 19 22 23 25 28 28 32 41 57 61 63 66 63 63 58 57 55 50 51 53 56 56 59 58
44 40 38 38 44 42 43 41 47 55 52 78 33 31 26 20 17 18 18 17 21 22 24 27 27 28 30 45 56 61 64 68 64 64 60 59 59 57 58 59 60 59 58 58
48 46 41 39 42 43 40 39 78 88 96 58 44 42 26 22 20 22 20 20 22 22 22 26 30 32 32 41 50 59 62 67 65 63 61 60 58 59 60 60 60 61 60 61
60 90 47 39 37 39 42 40 68 98 52 40 49 46 26 24 24 24 28 30 26 25 24 27 30 32 34 40 43 48 59 62 64 62 61 60 60 61 60 58 58 57 58 58
47 46 49 44 41 39 46 54 40 47 44 54 32 28 26 25 26 26 28 29 30 30 30 29 29 32 35 39 43 44 47 56 62 64 60 58 58 61 61 60 58 57 59 60
35 40 55 48 42 42 43 37 56 53 85 47 30 35 34 26 29 32 32 34 33 32 33 33 34 35 40 43 47 51 49 50 59 64 60 57 57 58 59 58 60 61 60 63
36 38 56 49 51 46 48 47 47 49 57 78 35 24 28 33 35 37 35 37 37 37 36 34 34 34 37 40 48 56 58 58 58 63 64 63 62 64 62 61 59 59 58 60
40 42 53 45 49 46 43 38 37 51 49 57 56 40 30 32 45 44 44 50 47 46 42 38 35 37 36 42 46 58 66 66 63 63 64 67 63 65 66 65 61 58 60 60
46 50 57 62 59 53 53 47 41 40 44 45 59 34 31 49 50 50 55 50 47 50 48 45 41 39 35 39 47 54 64 69 68 68 69 74 76 75 71 68 67 65 66 66
75 58 43 37 31 47 58 55 48 43 53 46 41 36 29 63 61 52 49 49 44 45 45 43 43 44 37 39 44 52 64 69 72 74 75 76 77 76 72 70 72 73 70 68
81 97 64 57 61 62 63 57 54 54 49 56 40 40 78 65 51 49 52 48 48 48 47 46 45 41 42 41 50 56 62 69 72 73 76 78 76 73 74 78 82 79 75 70
93 96 93 86 60 64 74 64 65 69 63 61 55 60 73 49 41 41 56 50 52 55 54 52 51 48 48 52 54 65 72 74 71 70 73 73 75 76 80 84 82 80 77 76
100 100 98 93 77 94 86 68 61 61 79 88 94 95 51 38 49 52 59 51 56 56 57 56 56 55 53 53 54 58 60 63 68 71 72 74 76 85 84 79 79 79 78 77
100 100 99 95 96 93 90 82 65 77 83 79 70 46 34 44 53 52 50 54 54 53 58 58 60 63 62 62 62 56 61 67 70 75 84 89 81 81 81 80 80 79 79 80
83 98 96 94 90 89 92 75 74 85 89 75 45 35 43 51 54 36 47 51 54 55 61 63 63 70 70 69 67 67 81 90 94 94 96 93 87 82 82 83 81 79 82 81
80 86 97 95 94 90 78 73 61 73 88 46 46 47 58 55 52 36 50 55 52 54 57 62 68 71 70 69 74 78 79 92 87 90 91 86 84 80 81 76 78 79 78 79
90 94 91 87 95 94 94 60 65 69 60 52 45 53 52 54 50 50 50 51 52 54 55 53 57 65 68 71 75 79 77 80 74 81 82 86 84 83 78 78 79 81 82 84
71 75 75 79 92 82 95 73 60 43 35 40 50 51 57 52 50 51 53 56 55 54 54 54 56 62 66 72 77 76 74 72 80 84 87 87 86 87 86 84 85 85 86 88
71 55 51 55 50 67 68 46 35 38 41 38 46 57 62 60 58 57 58 52 49 50 52 54 57 59 64 74 76 78 73 79 79 80 82 86 86 85 84 82 87 91 91 95
56 60 63 60 58 54 57 44 34 34 43 65 67 65 59 58 54 54 50 50 48 46 48 52 55 59 66 70 84 86 85 80 82 84 83 83 82 84 81 88 85 89 87 87
48 57 62 60 49 43 31 29 43 58 60 56 52 52 53 52 50 48 47 46 45 47 48 51 57 58 59 70 88 94 93 90 91 83 86 82 78 79 88 87 90 92 90 88
54 47 47 51 39 31 30 56 58 57 58 56 55 55 50 50 50 48 48 51 54 57 54 51 52 57 61 77 92 97 96 96 94 91 84 86 89 87 89 92 91 88 89 91